Miscellaneous Local Product
Issued by NWS North Platte, NE

Home | Current Version | Previous Version | Text Only | Print | Product List | Glossary On
Versions: 1 2 3 4 5 6 7 8 9 10 11 12 13 14 15 16 17 18 19 20 21 22 23 24 25 26 27 28 29 30 31 32 33 34 35 36 37 38 39 40 41 42 43 44 45 46 47 48 49 50
000
AXUS43 KLBF 222210
MISLBF


WESTERN AND NORTH CENTRAL NEBRASKA HOURLY WEATHER ROUNDUP
NATIONAL WEATHER SERVICE NORTH PLATTE NE
500 PM CDT WED OCT 22 2014

***STATIONS NOT REPORTING VARIABLES SUCH AS SKY/WEATHER OR
PRESSURE ARE PROVIDED BY THE NEBRASKA DEPARTMENT OF
ROADS...RAWS...AND APRS NETWORKS...AND ARE NOT UNDER
NATIONAL WEATHER SERVICE QUALITY CONTROL***

...OBSERVATIONS IN AND NEAR THE EASTERN PANHANDLE OF NEBRASKA...

CITY           SKY/WX    TMP DP  RH WIND       PRES   REMARKS
PINE RIDGE     SUNNY     63  31  30 W10       30.02S
CHADRON        SUNNY     64  31  28 NW9       30.02S
ALLIANCE       SUNNY     64  34  32 NW8       30.03F
SIDNEY         MOSUNNY   66  33  29 N10       30.06S
WHITECLAY        N/A     62  32  32 W8          N/A
RUSHVILLE        N/A     62  24  23 NW15        N/A
CRESCENT LAKE    N/A     64  28  25 N9G17       N/A
LISCO            N/A     70   8   9 W13         N/A
BIG SPRINGS      N/A     69  35  29 N5          N/A
LEWELLEN         N/A     74  20  13 N12         N/A
$$

...OBSERVATIONS IN NORTH CENTRAL NEBRASKA...

CITY           SKY/WX    TMP DP  RH WIND       PRES   REMARKS
VALENTINE      SUNNY     66  41  40 NW12      30.00S
THEDFORD       SUNNY     67  46  48 N9        30.01S
AINSWORTH      MOSUNNY   63  46  53 W3        30.01S
O`NEILL        CLOUDY    58  54  85 NW6       30.00S
ORD            CLOUDY    62  57  83 CALM      30.00S
BROKEN BOW     CLOUDY    64  54  69 CALM      30.01R
BROWNLEE         N/A     68  42  38 CALM        N/A
SPRINGVIEW       N/A     64  50  61 W3          N/A
BREWSTER         N/A     67  53  60 CALM        N/A
ROSE             N/A     64  54  70 CALM        N/A
NEWPORT          N/A     60  53  77 NW3         N/A
SARGENT          N/A     62  56  81 NE3         N/A
COMSTOCK         N/A     69  62  78 CALM        N/A
CHAMBERS         N/A     59  53  79 CALM        N/A
$$

...OBSERVATIONS IN SOUTHWEST NEBRASKA AND FAR NORTHEAST COLORADO...

CITY           SKY/WX    TMP DP  RH WIND       PRES   REMARKS
WRAY           FAIR      73  36  26 N8G16     30.03S
HOLYOKE        FAIR      73  34  23 N9G16     30.05S
IMPERIAL       SUNNY     71  44  37 N8        30.02R
OGALLALA       SUNNY     71  32  23 NW12      30.02S
NORTH PLATTE   SUNNY     70  49  47 CALM      29.99F
MCCOOK         SUNNY     71  51  49 NE9       30.00S
LEXINGTON      MOSUNNY   67  56  67 CALM      30.00S
PAXTON           N/A     71  42  35 NW3         N/A
SUTHERLAND       N/A     76  32  20 NW9         N/A
BRADY            N/A     69  54  58 CALM        N/A
GOTHENBURG       N/A     68  51  53 CALM        N/A
CALLAWAY         N/A     65  58  78 CALM        N/A
$$

...SOME WEATHER OBSERVATIONS FROM AROUND THE REGION...

CITY           SKY/WX    TMP DP  RH WIND       PRES   REMARKS
DENVER         PTSUNNY   71  35  26 VRB5      30.07S
LARAMIE        SUNNY     56  26  31 W25       30.13S
CHEYENNE       PTSUNNY   62  28  27 W14G22    30.09R
SCOTTSBLUFF    MOSUNNY   67  28  23 NW12      30.02F
RAPID CITY     SUNNY     64  35  34 SE7       29.99S
PIERRE         SUNNY     64  41  42 W6        29.93S
WINNER         FAIR      64  45  49 VRB5      29.97F
SIOUX FALLS    RAIN      58  56  93 S5        29.95R FOG
OMAHA          PTSUNNY   74  54  49 SE20      29.99S
GRAND ISLAND   HVY RAIN  62  59  90 S12       30.00F FOG
KANSAS CITY    MOSUNNY   71  57  61 SE14      30.09S
WICHITA        PTSUNNY   76  52  43 S22       30.04S
HAYS           CLOUDY    70  54  56 S22       29.99S
LIBERAL        MOSUNNY   73  57  56 S21       30.02S
GOODLAND       SUNNY     73  45  36 NE6       30.03R
$$



USA.gov is the U.S. government's official web portal to all federal, state and local government web resources and services.